Weather

Vsebine: Paragliding sitesCurrent conditionsCurrent conditions (amateur)Radar rainfal imageMeteo stationsPanoramic cameras


Current conditions (official report)

Show amateur stations

Click on a specific station to see its location

Location Weather conditions Temperature Wind Air pressure Last updated Geopedia
    °C direction speed (m/s) gusts (m/s) hPa    
Babno Polje 7   - - 2019-11-13 15:53:00
Babno Polje (756 m) 5   - - 2016-01-12 07:40:00
Bilje Nova Gorica 12   5 7 999 2019-11-13 15:53:00
Bilje pri Novi Gorici 11   3 - 998 2019-11-13 15:42:00
Blegoš 2   - - 2019-11-13 15:53:00
Bohinjska Češnjica 3   - - 2019-11-13 15:53:00
Boršt Gorenja vas 7   1 3 999 2019-11-13 15:36:00
Bovec 5   - 4 1001 2019-11-13 15:36:00
Breginj 5   - - 2019-11-13 15:53:00
Bukovski vrh 5   - - 2019-11-13 15:53:00
Celje 7   1 - 1000 2019-11-13 15:42:00
Cerkniško jezero 8   - - 2019-11-13 15:26:00
Črnomelj 10   - - 1000 2019-11-13 15:42:00
Davča 2   - - 2019-11-13 15:53:00
Dobliče Črnomelj 11   - 1 1000 2019-11-13 15:33:00
Dolenje Ajdovščina 11   2 3 2019-11-13 15:35:00
Gačnik 7   2 4 2019-11-13 15:53:00
Godnje 10   4 7 2019-11-13 15:53:00
Gornji Grad 6   - - 2019-11-13 15:53:00
Hočko Pohorje 6   - - 2019-11-13 15:53:00
Hrastnik 17   2 5 1009 2019-09-30 08:36:00
Idrija 9   - - 2019-11-13 15:33:00
Ilirska Bistrica 9   1 2 2019-11-13 15:36:00
Iskrba 9   1 2 2019-11-13 15:33:00
Jeronim 5   - - 2019-11-13 15:33:00
Jeruzalem 6   - - 2019-11-13 15:33:00
Jezersko 2   - - 2019-11-13 15:34:00
Juršče   - - 2016-09-13 14:33:00
Kamniška Bistrica 7   - - 2019-11-13 15:33:00
Kanin -2   - - 2019-11-13 15:33:00
Katarina nad Ljubljano 6   - - 2019-11-13 13:42:00
Kočevje 8   1 1 2019-11-13 15:35:00
Koper Kapitanija 13   5 8 999 2019-11-13 15:11:00
Korensko sedlo 0   - - 2019-11-13 15:33:00
Kraj. park Goričko 5   2 3 2019-11-13 15:09:00
Kranj 6   - - 2019-11-13 15:33:00
Kredarica -4   8 - 2019-11-13 15:42:00
Krn 4   - - 2019-11-13 15:33:00
Krško 9   1 3 1000 2019-11-13 15:12:00
Krvavec 0   6 8 2019-11-13 15:33:00
Kubed 10   - - 2019-11-13 15:33:00
Kum 2   2 3 2019-11-13 15:33:00
Lendava 7   1 4 1000 2019-11-13 15:12:00
Let. E. Rusjana Maribor 8   3 7 1000 2019-11-13 15:06:00
Let. J. Pučnika Lj. 0   2 3 1011 2015-11-26 11:03:00
Let. J. Pučnika Ljubljana 6   6 9 1000 2019-11-13 15:23:00
Letališče Cerklje ob Krki 9   3 - 1000 2019-11-13 15:42:00
Letališče Edvarda Rusjana Maribor 8   3 - 1000 2019-11-13 15:42:00
Letališče Jožeta Pučnika Ljubljana 6   7 - 1000 2019-11-13 15:42:00
Letališče Lesce 5   4 - 1001 2019-11-13 15:42:00
Letališče Portorož 13   3 - 999 2019-11-13 15:42:00
Lisca 3   4 - 2019-11-13 15:42:00
Lisca (943 m) 9   5 12 2016-03-29 14:02:00
Litija 8   - - 2019-11-13 15:33:00
Ljubljana 8   3 - 1000 2019-11-13 15:42:00
Logarska dolina 3   - - 2019-11-13 15:33:00
Logatec 7   - - 2019-11-13 15:33:00
Luka Koper 13   2 5 2019-11-13 15:05:00
Malkovec 7   - 3 1000 2019-11-13 15:12:00
Maribor 7   1 2 2019-11-13 15:34:00
Maribor - Tabor 7   1 5 2019-11-13 15:32:00
Marinča vas 9   - - 2019-11-13 15:33:00
Metlika 10   - - 2019-11-13 15:34:00
Mežica 4   - - 2019-11-13 15:34:00
Miklavž na Gorjancih 6   - - 2019-11-13 15:35:00
Murska Sobota 6   3 5 1002 2019-11-13 15:34:00
Nanos 4   2 3 2019-11-13 15:34:00
Nova Gorica 10   3 5 999 2019-11-13 15:23:00
Nova vas - Bloke 7   - - 2019-11-13 15:35:00
Novo mesto 9   1 2 2019-11-13 15:34:00
Osilnica 9   - - 2019-11-13 15:34:00
Otlica 5   1 3 2019-11-13 15:23:00
Otlica (965 m) 7   4 7 2016-03-31 08:24:00
Park Škocj. jame 9   1 2 996 2019-11-13 12:04:00
Pasja ravan 4   1 3 2019-11-13 15:34:00
Pavličevo sedlo -1   - - 2019-11-13 15:34:00
Piran-ocean. boja 13   9 11 2019-11-13 15:16:00
Planina pod Golico 1   - - 2019-11-13 15:34:00
Podčetrtek 7   3 6 1000 2019-11-13 15:32:00
Podnanos 10   3 4 2019-11-13 15:34:00
Postojna 7   1 2 1000 2019-11-13 15:34:00
Predel 0   - - 2019-11-13 15:34:00
Ptuj 8   2 4 2019-11-13 15:34:00
Ptuj - Terme -2   2 3 2017-01-19 14:35:00
Radegunda 4   - - 2019-11-13 15:33:00
Radenci 7   - - 1002 2019-11-13 15:09:00
Rateče 1   - - 2019-11-13 15:30:00
Rateče (864 m) 1   - - 2019-11-13 15:09:00
Ratitovec -2   5 7 2019-11-13 15:34:00
Ravne na Koroškem 5   2 7 2019-11-13 15:12:00
Rogaška Slatina 7   2 4 2019-11-13 15:34:00
Rogla 0   3 6 2019-11-13 15:34:00
Rogla (1492 m) -11   4 7 2016-01-18 10:32:00
Rudno polje 0   2 4 2019-11-13 15:34:00
Rudno polje (1347 m) -2   1 3 2015-10-20 07:36:00
Sevno 7   - - 2019-11-13 15:34:00
Slavnik 5   9 11 2019-11-13 15:34:00
Slovenj Gradec 5   4 - 2019-11-13 15:30:00
Slovenske Konjice 7   - - 2019-11-13 15:34:00
Sviščaki 4   3 5 2019-11-13 15:34:00
Šebreljski vrh 4   - - 2019-11-13 15:34:00
Šmartno pri Slovenj Gradcu 4   5 10 2019-11-13 15:34:00
Tatre 7   - - 2019-11-13 15:34:00
Tolmin - Volče 8   1 3 2019-11-13 15:34:00
Topol 5   - - 2019-11-13 15:34:00
Trbovlje 7   - 2 2019-11-13 15:11:00
Trebnje 8   - - 2019-11-13 15:34:00
Trije Kralji na Pohorju 1   - - 2019-11-13 15:34:00
Trojane - Limovce 5   4 6 1001 2019-11-13 15:34:00
Uršlja gora -3   4 6 2019-11-13 15:34:00
Vedrijan 9   - - 2019-11-13 15:34:00
Velenje 7   - - 2019-11-13 15:34:00
Velike Lašče 7   2 2 2019-11-13 15:34:00
Vogel 0   2 3 2019-11-13 15:34:00
Vojsko 4   - - 2019-11-13 13:42:00
Vrbanski plato -2   2 3 2016-12-07 11:23:00
Vrhnika 8   1 2 2019-11-13 15:34:00
Vršič -3   - - 2019-11-13 15:34:00
Zadlog 6   - - 2019-11-13 15:33:00
Zelenica -2   - - 2019-11-13 15:34:00
Zgornja Kapla 3   2 5 2019-11-13 15:34:00
Zgornja Radovna 1   - - 2019-11-13 15:34:00
Zgornja Sorica 4   - - 2019-11-13 15:34:00
Source: Slovenian Environmental Agency, meteo.si